Temperature
11 11 11 11 11 10 10 10 10 10 10 9 9 9 9 9 9 9 9 9 9 9 8 8 8 8 8 8 8 8 8 7 7 7 7 7 7 6 6 6 6 6 6
11 11 11 11 10 10 10 10 10 10 9 9 9 9 9 9 9 9 9 9 9 9 9 8 8 8 8 8 8 8 8 8 7 7 7 7 6 6 6 6 6 6 6
11 11 11 11 10 10 10 10 10 9 9 9 9 9 9 9 8 8 9 9 9 9 9 8 8 8 8 8 8 8 8 7 7 7 7 6 6 6 6 6 5 5 5
11 11 11 11 11 10 10 10 10 9 9 9 9 9 9 8 8 8 8 8 9 9 9 9 9 9 9 8 8 8 8 8 7 7 7 6 6 6 6 5 5 5 5
11 11 11 11 11 10 10 10 10 9 9 9 9 9 8 8 8 8 8 8 8 9 9 9 9 9 9 9 8 8 8 8 7 7 7 6 6 6 5 5 5 5 5
11 11 11 11 11 10 10 10 10 9 9 9 8 8 8 8 8 8 8 8 9 9 9 9 9 9 9 9 8 8 8 8 7 7 7 6 6 6 5 5 5 4 4
12 12 11 11 11 11 10 10 10 9 9 9 8 8 8 8 8 8 8 9 9 9 9 9 9 9 9 9 9 8 8 8 7 7 7 6 6 6 5 5 5 4 4
12 12 12 11 11 11 10 10 10 9 9 9 9 8 8 8 8 8 8 8 9 9 9 9 9 9 9 9 8 8 8 8 7 7 6 6 6 5 5 5 4 4 4
12 12 12 11 11 11 11 10 10 10 9 9 9 9 8 8 9 8 9 9 8 9 9 9 9 9 9 9 8 8 8 7 7 7 6 6 6 5 5 4 4 4 4
12 12 12 11 11 11 11 10 10 10 9 9 9 9 9 9 9 8 8 9 8 8 9 9 9 9 8 8 8 8 8 7 7 6 6 6 5 5 4 4 4 4 3
12 12 12 11 11 11 11 10 10 10 9 9 9 9 9 9 9 9 8 8 8 9 9 9 9 9 8 8 8 8 7 7 7 6 6 6 5 5 4 4 4 3 3
12 12 12 11 11 11 11 10 10 10 9 9 9 9 9 9 9 9 8 9 9 9 8 8 8 8 8 8 8 8 7 7 6 6 6 5 5 5 4 4 3 3 3
13 14 13 12 11 11 11 10 10 10 10 9 9 9 9 9 9 9 9 8 8 8 8 8 8 8 8 8 8 7 7 7 6 6 5 5 5 4 4 3 3 3 2
15 15 13 12 12 11 10 10 10 10 9 9 9 9 9 9 9 8 8 8 8 8 8 8 8 8 8 8 7 7 7 6 6 5 5 4 4 4 3 3 3 2 2
14 14 13 13 12 11 10 10 10 9 9 9 9 9 9 8 8 8 8 8 8 8 8 8 8 8 7 7 7 6 6 6 5 5 4 4 3 3 3 2 2 2 1
13 13 13 12 11 11 10 10 10 9 9 9 9 9 8 8 8 8 8 8 8 8 7 7 7 7 7 7 6 6 6 5 5 4 4 3 3 3 2 2 1 1 1
12 12 12 12 11 10 10 10 10 9 9 9 9 9 9 8 8 8 8 8 8 7 7 7 7 7 7 6 6 5 5 5 4 4 3 3 2 2 2 1 1 0 -0
12 12 11 11 11 10 10 10 10 9 9 9 9 9 9 8 8 8 8 8 8 7 7 7 7 6 6 6 5 5 4 4 4 3 3 2 2 1 1 1 0 -0 -1
11 11 11 11 11 10 10 10 10 9 9 9 9 9 9 8 8 8 8 8 8 7 7 6 6 6 5 5 5 4 4 4 3 3 2 2 1 1 0 -0 -1 -1 -2
11 11 11 11 10 10 10 10 9 9 9 9 9 9 9 8 8 8 8 8 7 7 7 6 6 5 5 5 4 4 4 3 3 2 2 1 0 0 -0 -1 -2 -2 -2
11 11 10 10 10 10 10 9 9 9 9 9 9 8 8 8 8 8 8 7 7 7 6 6 5 5 4 4 4 3 3 2 2 2 1 1 -0 -0 -1 -1 -2 -3 -3
11 11 10 10 10 10 9 9 9 9 9 9 8 8 8 8 8 8 7 7 7 6 6 5 5 4 4 3 3 2 2 1 1 1 0 -0 -1 -1 -1 -2 -3 -3 -4
11 10 10 10 10 10 9 9 9 9 9 8 8 8 8 8 8 7 7 7 6 6 5 5 4 4 3 3 2 2 1 1 0 0 -1 -1 -1 -1 -2 -3 -3 -4 -4
11 10 10 10 10 10 9 9 9 9 8 8 8 8 8 8 7 7 7 6 6 5 5 4 4 3 3 2 1 1 0 0 -0 -0 -1 -2 -2 -2 -2 -3 -3 -4 -5
10 10 10 10 10 10 9 9 9 8 8 8 8 8 8 7 7 7 6 6 5 5 4 4 3 3 2 1 1 0 0 -1 -1 -1 -2 -3 -3 -3 -3 -3 -4 -4 -5
10 10 10 10 9 9 9 9 8 8 8 8 8 7 7 7 7 6 6 5 5 5 4 3 3 2 2 1 1 -0 -1 -1 -2 -3 -3 -4 -4 -5 -5 -4 -4 -5 -5
Wind_Speed
7 9 9 11 11 11 10 7 6 6 6 5 4 4 5 7 9 11 10 9 8 8 7 7 8 8 9 9 9 10 10 10 11 11 12 12 12 13 13 14 14 15 15
9 8 7 8 9 11 11 7 6 5 4 5 4 4 5 6 8 10 11 10 9 7 6 6 7 7 7 7 8 8 9 9 10 10 11 11 12 12 12 13 14 14 15
12 9 6 6 8 11 11 7 6 5 4 4 3 3 4 5 5 8 11 11 9 8 6 6 5 6 6 6 7 7 8 8 8 9 10 10 11 12 12 13 13 14 14
16 10 6 6 10 11 8 4 4 4 4 3 3 2 3 3 3 5 7 9 9 9 7 5 5 4 4 5 5 6 6 7 7 8 9 10 10 11 12 13 13 14 14
17 12 7 7 12 8 5 4 4 4 4 3 3 3 2 2 3 4 5 7 7 9 8 6 5 3 3 3 4 4 5 6 7 8 9 10 10 11 12 13 13 14 15
17 13 8 9 10 6 5 5 5 4 4 4 3 2 2 2 3 3 4 7 7 7 8 8 7 5 3 1 2 3 5 5 6 7 8 9 10 11 12 13 13 14 15
16 12 7 8 8 7 7 7 5 6 4 4 3 1 1 2 3 3 4 5 6 7 7 7 7 7 6 4 1 2 4 5 6 7 8 9 11 12 12 13 14 15 15
16 13 9 8 8 7 8 8 6 5 4 5 4 3 2 2 3 3 3 4 5 7 7 8 7 7 7 7 5 3 4 6 7 8 9 10 11 12 13 14 15 15 16
15 13 12 9 9 9 8 9 8 8 6 5 5 5 4 4 2 2 4 4 5 4 5 8 8 8 7 8 7 5 4 6 7 8 9 11 12 13 14 14 15 16 17
14 15 14 12 10 9 9 9 9 7 8 6 5 4 3 3 3 2 3 4 6 6 5 6 8 10 10 9 8 7 6 6 8 9 10 11 12 13 14 15 16 17 17
13 14 14 12 11 10 10 10 9 8 7 6 5 4 3 1 2 3 3 3 3 4 5 6 8 10 11 11 10 9 7 7 9 10 11 12 13 14 15 16 17 17 18
12 14 14 12 11 10 11 10 10 11 9 8 6 5 5 4 4 4 4 3 4 5 5 5 6 8 11 11 11 10 9 9 10 10 11 13 14 15 16 17 17 18 19
12 17 15 14 12 10 10 10 11 11 10 9 8 6 6 5 4 4 4 3 3 2 3 4 5 8 10 10 11 10 10 10 11 12 12 13 14 15 16 17 18 19 20
14 14 16 14 13 12 11 11 9 10 10 10 10 9 6 6 5 5 5 4 2 2 3 5 4 7 9 10 10 11 10 11 12 13 13 14 15 15 17 17 18 19 20
12 15 16 15 14 13 13 12 10 11 10 10 9 9 7 6 5 5 5 5 5 4 5 5 4 4 8 9 9 10 10 11 13 13 14 14 15 16 17 18 19 20 20
13 15 16 16 15 14 14 12 9 10 11 10 8 9 8 6 5 5 5 5 5 5 4 4 4 3 5 6 9 9 10 11 13 13 14 15 15 16 17 18 19 20 20
14 15 16 16 16 15 14 13 12 12 13 11 10 11 10 8 6 6 5 5 5 4 5 4 2 2 3 3 5 8 9 10 10 13 14 15 16 17 17 18 19 20 20
14 15 15 15 15 15 14 15 14 13 14 13 12 11 11 8 8 6 6 6 6 5 5 5 3 2 3 4 4 4 6 8 9 12 14 15 16 17 18 18 19 19 19
14 14 15 15 15 15 14 14 13 13 13 13 12 12 11 10 9 7 7 7 6 5 4 4 3 2 2 2 2 3 4 5 8 11 13 14 15 16 17 18 19 19 19
14 14 14 14 14 13 13 13 12 12 11 11 10 10 11 11 11 9 8 7 6 5 4 3 3 2 2 1 1 3 4 3 4 7 10 11 13 15 16 18 19 19 19
13 13 12 12 12 12 12 13 12 11 11 10 9 9 9 11 11 10 8 7 7 6 4 4 3 2 2 2 3 2 3 3 4 3 3 5 7 8 12 15 16 17 18
12 12 13 13 13 10 14 17 14 11 11 11 10 9 9 10 11 12 12 12 11 8 7 5 4 4 5 4 3 2 2 2 4 2 2 5 4 5 7 11 15 18 19
11 11 12 12 12 13 17 18 17 12 10 10 10 9 7 7 9 7 9 10 10 10 9 7 6 6 4 4 3 2 2 2 4 3 2 4 3 4 7 12 17 18 19
11 11 11 12 11 12 17 18 17 12 9 9 9 9 9 8 8 8 7 6 6 6 6 5 5 5 3 3 3 3 2 2 3 3 1 4 4 4 6 10 15 16 18
9 9 10 11 11 11 16 17 16 9 8 8 7 7 8 8 10 11 8 7 5 3 4 5 4 3 3 3 2 1 1 1 4 3 1 2 3 5 5 4 9 15 19
9 9 8 9 10 10 15 17 17 9 8 7 6 7 9 9 11 12 9 8 7 5 4 3 2 2 2 2 2 2 2 1 2 3 1 2 3 4 5 4 4 10 13
Wind_Direction
150 150 159 162 171 162 159 185 183 156 149 144 126 113 110 104 105 105 102 90 85 79 74 76 71 67 63 59 53 46 41 36 32 30 27 24 20 17 14 12 9 7 5
155 154 156 161 166 158 168 182 167 150 142 130 123 115 110 114 117 121 121 107 96 87 83 82 77 69 62 59 53 44 37 33 29 26 23 20 16 12 10 7 5 3 1
157 157 152 157 159 161 166 176 161 147 129 125 131 118 103 105 120 133 135 130 119 104 97 90 82 71 61 55 50 42 33 27 24 20 17 13 9 5 4 2 1 358 355
161 159 151 158 161 163 163 158 145 137 134 143 145 130 115 116 127 123 129 137 137 127 115 107 97 82 62 48 41 35 25 19 15 11 8 5 2 358 355 355 354 351 349
165 162 156 162 162 158 157 162 153 151 151 154 142 137 142 141 136 137 140 135 132 138 140 139 130 117 82 45 28 19 12 8 5 1 358 355 352 350 347 347 346 345 343
169 166 162 166 163 156 163 165 162 159 151 152 144 140 154 161 157 165 159 147 151 157 162 165 167 162 162 117 5 358 354 351 350 349 347 345 343 342 340 340 340 338 337
173 169 167 169 165 166 170 170 163 161 160 144 119 120 258 216 199 184 166 162 173 181 180 181 183 181 185 196 231 315 329 332 334 337 336 335 335 334 334 335 333 332 332
178 178 171 173 170 170 175 178 166 160 167 156 149 147 196 264 264 206 185 186 183 182 191 196 194 191 193 192 203 241 293 311 317 322 326 327 327 327 328 328 328 328 328
183 182 178 173 175 175 181 183 172 166 172 180 176 166 170 205 212 231 211 199 193 191 196 198 199 204 205 195 200 217 252 287 302 311 317 319 320 321 322 323 324 324 324
186 186 183 181 180 180 182 185 178 172 168 181 198 210 194 160 150 199 252 223 207 203 202 196 200 205 209 207 203 211 235 267 289 301 309 312 315 317 318 319 320 320 320
192 189 188 188 187 187 185 185 181 179 178 178 181 186 214 223 174 159 215 238 236 226 208 197 198 203 207 209 207 212 231 257 277 291 300 306 309 312 314 315 316 316 317
195 194 192 193 192 190 188 186 184 184 186 184 185 179 170 175 197 186 199 212 224 234 216 203 199 204 206 208 210 216 230 250 269 283 292 299 304 307 310 311 313 313 314
196 198 195 197 197 192 187 183 185 188 187 188 189 191 188 191 181 178 182 205 217 227 208 220 210 205 203 206 213 220 230 248 264 276 284 292 297 302 306 308 311 312 312
195 192 195 197 197 194 191 187 187 189 190 192 194 191 192 197 191 184 178 176 201 238 222 233 224 203 202 204 213 220 232 248 261 270 279 286 293 299 303 306 308 309 310
189 189 193 196 198 197 194 190 193 192 191 194 195 194 195 194 191 190 184 173 175 209 237 231 217 211 198 202 216 221 233 249 260 267 276 284 290 296 300 304 307 308 308
185 186 191 195 197 198 196 193 191 191 192 195 191 192 196 192 191 191 190 189 182 185 222 226 210 201 186 200 218 223 237 255 261 268 277 284 288 295 299 302 305 306 308
184 186 189 192 196 198 196 196 195 191 194 195 193 195 198 191 190 192 188 189 194 186 219 246 217 180 179 208 222 230 245 255 262 271 280 286 291 297 300 302 305 307 309
187 186 186 189 194 196 195 196 195 194 196 198 196 195 198 191 191 188 187 194 201 198 202 228 236 213 211 217 216 230 250 259 263 274 282 288 293 298 301 303 305 307 309
186 184 185 189 192 193 194 196 195 195 198 198 196 196 195 188 194 191 191 197 202 202 200 208 230 224 232 229 232 252 259 263 271 278 284 288 293 299 304 306 307 309 310
185 185 186 187 188 189 191 192 191 192 194 196 194 194 192 191 195 192 194 197 193 196 201 209 224 226 235 247 211 249 274 269 281 282 283 291 297 303 306 309 310 311 311
181 181 181 182 183 186 189 187 187 189 190 191 192 191 190 188 188 188 190 192 189 194 199 207 218 220 225 232 241 236 259 281 287 269 294 297 298 297 300 306 310 312 313
175 176 181 182 184 188 183 181 183 186 187 189 190 188 186 185 188 191 194 193 190 192 198 200 211 223 233 229 225 230 244 287 289 290 307 294 290 291 293 301 310 317 318
173 177 180 180 183 183 178 178 180 181 183 187 187 185 183 183 183 191 196 194 198 198 195 195 206 219 222 217 201 218 235 250 260 273 317 287 287 288 297 309 315 317 319
175 178 179 179 178 178 174 174 173 176 176 181 183 183 181 178 179 177 178 184 193 197 198 198 200 208 201 189 187 198 221 270 296 298 297 280 296 300 307 308 314 322 328
170 172 173 172 173 172 171 170 167 175 175 176 173 173 173 177 178 173 175 181 184 199 191 183 180 183 183 181 159 109 48 336 307 299 311 287 302 314 301 293 315 327 328
160 159 161 167 168 167 169 169 168 172 171 168 163 167 170 172 175 176 179 178 186 196 169 148 141 152 136 149 168 164 175 263 302 290 320 328 312 335 316 296 308 318 321
Height
1525 1527 1530 1532 1535 1537 1539 1542 1544 1546 1547 1549 1550 1551 1551 1552 1552 1552 1552 1552 1553 1553 1553 1553 1553 1552 1552 1551 1550 1549 1548 1547 1546 1545 1543 1542 1540 1539 1537 1536 1534 1532 1530
1524 1526 1529 1532 1534 1536 1539 1541 1544 1546 1547 1548 1549 1551 1551 1552 1552 1552 1552 1552 1552 1552 1553 1553 1553 1552 1552 1551 1550 1549 1548 1547 1546 1544 1543 1541 1540 1538 1537 1535 1533 1531 1529
1522 1525 1528 1530 1533 1535 1538 1540 1543 1545 1546 1548 1549 1550 1551 1551 1552 1552 1552 1552 1552 1552 1552 1552 1552 1552 1551 1551 1550 1549 1548 1547 1545 1544 1542 1541 1539 1538 1536 1534 1532 1530 1528
1520 1523 1526 1528 1531 1534 1536 1539 1541 1543 1545 1546 1548 1549 1550 1551 1551 1551 1551 1551 1551 1551 1552 1552 1551 1551 1551 1550 1549 1548 1547 1546 1545 1543 1542 1540 1538 1536 1535 1533 1531 1528 1526
1518 1520 1523 1526 1529 1531 1534 1537 1539 1541 1543 1545 1547 1548 1549 1549 1550 1550 1550 1550 1550 1550 1551 1551 1551 1550 1550 1549 1548 1548 1546 1545 1544 1542 1541 1539 1537 1535 1533 1531 1529 1527 1525
1515 1518 1521 1524 1526 1529 1532 1534 1537 1540 1542 1543 1545 1546 1547 1548 1548 1549 1549 1549 1549 1550 1549 1549 1549 1549 1549 1548 1547 1546 1545 1544 1542 1541 1539 1537 1535 1533 1531 1529 1527 1525 1522
1511 1514 1517 1520 1523 1526 1529 1532 1534 1537 1539 1541 1543 1545 1546 1546 1546 1547 1547 1547 1548 1548 1548 1548 1548 1547 1547 1547 1546 1545 1544 1542 1541 1539 1537 1535 1533 1531 1529 1527 1524 1522 1520
1507 1510 1513 1516 1519 1523 1526 1529 1531 1534 1536 1538 1540 1542 1543 1545 1544 1545 1545 1545 1545 1546 1546 1546 1546 1546 1545 1545 1544 1543 1542 1540 1539 1537 1535 1533 1531 1529 1526 1524 1521 1519 1516
1502 1506 1509 1513 1516 1519 1522 1525 1527 1530 1532 1535 1537 1539 1540 1540 1541 1542 1542 1543 1543 1543 1544 1544 1544 1543 1543 1542 1542 1541 1540 1538 1536 1534 1532 1530 1528 1526 1523 1521 1518 1515 1513
1497 1501 1505 1508 1511 1514 1517 1521 1524 1526 1529 1531 1533 1535 1538 1538 1539 1539 1540 1540 1540 1540 1541 1541 1541 1541 1540 1540 1539 1538 1537 1535 1534 1532 1530 1527 1525 1522 1520 1517 1514 1512 1508
1492 1496 1500 1503 1506 1509 1513 1516 1519 1522 1524 1526 1529 1531 1533 1535 1536 1536 1536 1537 1537 1537 1538 1538 1538 1538 1537 1537 1536 1535 1534 1532 1530 1528 1526 1524 1521 1518 1516 1513 1510 1507 1504
1486 1490 1493 1497 1501 1504 1507 1511 1514 1517 1520 1522 1525 1527 1529 1530 1532 1533 1533 1533 1534 1534 1535 1535 1534 1534 1534 1533 1532 1531 1530 1528 1527 1525 1522 1520 1517 1514 1511 1508 1505 1502 1499
1478 1482 1486 1490 1494 1498 1502 1506 1509 1512 1515 1518 1520 1522 1524 1526 1528 1530 1530 1530 1531 1531 1531 1531 1531 1531 1530 1529 1528 1527 1526 1524 1523 1520 1518 1515 1513 1510 1507 1504 1501 1497 1494
1471 1475 1480 1484 1488 1493 1497 1500 1504 1507 1510 1513 1515 1518 1520 1521 1524 1525 1526 1527 1527 1527 1526 1526 1527 1526 1526 1525 1524 1523 1521 1520 1518 1516 1513 1511 1508 1505 1502 1499 1495 1492 1488
1466 1470 1474 1478 1482 1487 1491 1495 1498 1501 1504 1507 1510 1513 1515 1517 1519 1521 1522 1523 1524 1522 1521 1522 1522 1522 1521 1520 1519 1518 1517 1515 1513 1511 1509 1506 1503 1500 1497 1494 1490 1486 1483
1459 1463 1467 1471 1476 1480 1485 1489 1492 1496 1499 1502 1505 1508 1510 1512 1514 1516 1517 1518 1519 1519 1518 1517 1517 1517 1516 1516 1515 1513 1512 1510 1508 1506 1504 1501 1499 1495 1492 1488 1485 1481 1477
1453 1457 1461 1465 1469 1474 1478 1482 1486 1490 1493 1496 1499 1501 1504 1507 1508 1510 1512 1513 1514 1514 1513 1513 1513 1512 1511 1510 1509 1508 1507 1505 1503 1501 1499 1496 1493 1490 1487 1483 1479 1475 1471
1447 1451 1455 1459 1463 1467 1472 1476 1479 1483 1486 1489 1492 1496 1498 1501 1503 1504 1506 1507 1508 1509 1509 1508 1507 1507 1506 1505 1504 1503 1501 1500 1498 1496 1493 1491 1488 1485 1481 1478 1474 1470 1466
1441 1446 1450 1453 1457 1461 1465 1470 1474 1477 1481 1484 1487 1490 1492 1495 1497 1499 1500 1501 1502 1503 1503 1503 1502 1502 1501 1500 1499 1497 1496 1495 1493 1490 1488 1485 1482 1479 1476 1472 1468 1464 1460
1435 1439 1444 1447 1452 1456 1460 1464 1468 1472 1475 1479 1482 1484 1487 1489 1491 1493 1495 1496 1497 1498 1498 1497 1497 1496 1496 1495 1493 1492 1490 1489 1487 1485 1482 1480 1477 1474 1470 1467 1463 1459 1454
1430 1434 1438 1442 1447 1451 1454 1458 1462 1466 1469 1473 1476 1479 1482 1484 1486 1488 1490 1491 1492 1492 1492 1492 1491 1490 1490 1489 1488 1486 1485 1483 1481 1479 1476 1474 1471 1468 1465 1461 1457 1453 1449
1424 1429 1433 1437 1441 1445 1449 1453 1457 1461 1464 1467 1470 1473 1476 1479 1481 1483 1484 1485 1486 1486 1486 1486 1486 1485 1484 1484 1483 1482 1480 1477 1474 1474 1471 1468 1466 1462 1459 1455 1452 1448 1444
1418 1423 1428 1432 1435 1439 1444 1448 1452 1455 1459 1462 1465 1468 1471 1473 1475 1477 1478 1479 1480 1481 1481 1482 1481 1480 1480 1480 1479 1477 1476 1474 1471 1469 1465 1461 1460 1456 1454 1450 1447 1443 1439
1413 1418 1422 1426 1431 1435 1439 1443 1447 1451 1454 1457 1460 1463 1466 1468 1470 1472 1473 1474 1475 1475 1476 1476 1476 1476 1476 1475 1475 1474 1472 1469 1467 1465 1462 1457 1454 1451 1448 1445 1442 1438 1435
1408 1413 1418 1422 1426 1430 1434 1438 1443 1446 1449 1452 1455 1458 1461 1463 1465 1467 1468 1469 1470 1470 1471 1471 1471 1471 1471 1471 1470 1469 1467 1464 1461 1459 1457 1454 1449 1445 1442 1440 1437 1434 1430
1404 1409 1414 1418 1422 1426 1430 1434 1438 1441 1444 1448 1451 1453 1456 1458 1460 1461 1463 1464 1464 1465 1466 1466 1467 1467 1466 1466 1465 1464 1463 1460 1458 1455 1453 1450 1446 1442 1436 1434 1432 1430 1426